Helicity
34 62 40 -3 15 -5 -63 -14 130 79 140 154 129 80 81 200 219 253 155 99 54 92 84 100 117 104 99 92 89 95 94 84 74 74 91 85 76 65 42 34 22 27 33 8 20 29 32 22 28
21 41 21 -5 -15 -62 -2 120 126 229 205 110 53 93 119 217 206 144 52 128 76 115 99 106 108 100 102 102 103 105 99 93 85 68 70 83 91 69 55 34 25 23 30 27 8 16 32 37 32
108 17 13 -3 -12 -38 72 102 135 162 142 70 95 226 138 209 158 122 56 100 116 113 108 110 120 116 114 118 111 112 107 106 102 112 98 92 88 85 72 43 20 12 23 31 21 13 20 33 42
-0 8 6 -23 -109 158 175 84 81 76 84 57 113 78 74 157 100 137 156 120 124 127 88 81 85 99 94 99 99 110 115 120 121 116 118 119 105 80 67 63 37 10 3 15 19 26 26 32 35
-5 6 -22 -62 -32 128 125 162 45 21 35 69 128 129 83 98 107 124 134 124 131 129 119 86 81 95 93 96 108 110 113 123 139 145 129 98 79 57 53 57 62 35 5 6 8 13 28 41 43
-0 8 -34 -102 73 187 189 132 14 93 89 114 131 172 113 84 99 115 109 121 123 120 114 110 107 103 98 84 113 107 110 113 122 124 113 101 76 62 45 25 31 42 37 14 10 25 30 32 47
-8 21 -5 38 94 73 156 66 58 82 38 151 61 109 91 103 98 88 90 96 101 98 97 98 96 106 116 72 95 95 79 87 80 81 88 116 101 64 73 51 37 25 24 37 25 24 32 32 38
7 24 1 10 12 132 221 157 164 53 199 149 303 130 88 109 88 64 57 53 66 75 89 110 124 122 128 94 94 99 64 84 58 56 65 119 133 116 95 75 66 74 56 35 35 49 49 41 37
19 17 -41 22 101 155 125 129 111 158 171 286 236 312 206 87 56 72 66 58 83 96 95 105 135 133 118 69 74 78 77 102 85 83 58 73 72 97 105 93 82 56 46 40 41 34 44 59 55
21 37 62 110 154 140 117 117 122 65 166 124 170 187 158 88 102 136 158 183 141 147 138 143 118 90 80 67 60 50 61 68 66 86 56 35 60 60 85 87 93 89 59 40 51 50 37 55 68
63 74 106 81 149 188 121 49 68 49 71 169 142 147 161 167 190 211 208 168 185 167 141 128 96 65 58 53 31 22 23 39 66 82 66 59 49 62 56 56 73 82 93 79 64 67 99 93 97
43 43 41 87 59 93 125 98 95 170 209 316 365 217 149 176 204 244 237 225 198 166 120 104 81 64 62 53 50 40 35 34 45 46 55 54 47 52 65 87 106 97 94 96 102 108 70 79 97
19 80 49 49 42 41 49 65 84 188 190 182 201 180 202 242 223 191 225 212 167 145 98 78 69 68 84 92 83 83 89 80 57 54 54 52 35 41 48 75 101 129 123 129 127 108 105 99 85
73 33 23 19 32 37 56 40 57 211 144 148 130 172 223 226 220 228 204 182 142 120 99 71 60 77 91 98 103 105 90 73 62 55 51 47 44 41 46 60 81 105 134 148 154 135 115 132 108
41 22 19 41 62 86 116 39 37 335 136 107 96 189 197 187 198 203 166 154 125 118 108 87 93 91 105 100 90 70 62 59 62 60 71 73 68 64 76 69 66 89 136 155 151 157 146 127 149
29 29 33 30 215 176 87 80 349 214 145 95 76 131 138 178 197 172 139 139 122 123 111 106 103 96 91 66 51 44 39 42 44 54 55 71 96 115 97 84 107 138 154 137 156 153 146 147 216
18 50 3 118 140 149 99 46 190 174 121 93 86 179 143 203 137 145 147 157 144 142 114 106 96 92 75 52 49 47 50 45 42 35 37 59 55 74 91 80 67 78 82 114 180 193 227 167 184
101 129 63 15 102 100 63 72 142 155 160 144 170 206 231 119 220 163 138 135 131 118 107 96 68 61 47 39 46 37 30 27 18 19 19 64 43 68 89 71 74 70 74 87 116 191 204 260 219
139 76 75 60 50 60 126 215 72 161 208 201 223 235 113 198 236 135 110 109 104 90 76 64 58 55 55 57 51 48 44 29 28 11 42 38 67 60 49 38 39 52 76 91 102 96 112 142 286
95 78 62 60 42 114 98 66 26 18 248 202 182 100 169 223 134 151 111 92 63 71 61 63 77 80 75 60 46 38 22 16 5 2 -11 -0 32 52 67 71 48 54 67 71 91 100 79 122 139
83 52 63 112 126 123 86 66 40 -1 292 248 264 251 332 257 227 176 91 84 81 82 78 89 98 97 92 67 57 46 27 8 -9 -14 -26 -13 16 55 71 71 56 47 48 52 63 80 94 78 104
177 103 208 148 96 103 55 142 69 136 244 342 258 195 192 165 142 141 106 114 111 96 96 113 112 104 100 73 59 48 15 9 -5 -10 -25 -35 -25 54 73 72 61 47 44 32 44 53 56 68 62
159 149 130 96 76 89 83 111 44 89 215 236 151 110 168 190 150 129 141 123 151 122 102 118 112 119 102 84 55 37 22 6 -13 -24 -56 -51 3 41 78 68 57 40 32 39 49 59 56 61 67
98 103 55 39 40 125 3 24 4 131 152 132 191 196 201 161 135 121 138 115 113 128 124 129 123 136 101 82 60 45 30 -14 -25 -22 -28 -57 -23 11 72 73 54 42 29 33 31 37 49 44 67
25 52 126 158 161 127 40 126 83 166 225 226 234 186 145 162 128 139 143 99 119 135 129 133 136 139 95 86 59 42 -0 -13 -30 -34 -21 -48 -45 18 27 49 54 61 46 37 26 28 35 78 92
69 75 210 185 301 277 86 209 118 180 193 191 200 155 175 151 135 161 108 93 139 127 132 144 140 117 95 87 60 23 9 -2 -19 -19 -20 -11 4 -8 -37 -13 24 38 9 13 13 15 51 77 107
145 148 70 240 179 188 120 31 132 125 140 125 135 132 131 159 164 155 122 82 141 138 137 138 124 112 104 85 54 21 20 15 -2 -1 10 10 23 21 -14 -26 22 19 33 47 34 9 74 153 50
57 73 185 160 186 162 158 136 69 160 120 120 111 127 94 167 139 184 39 57 111 158 118 119 112 111 95 72 51 36 28 16 -1 7 31 32 21 17 -2 -28 17 64 88 98 111 110 170 185 186
52 61 59 53 92 170 167 156 66 59 66 93 48 48 116 169 215 189 47 89 189 139 112 106 96 86 68 65 49 50 28 17 4 17 35 33 30 18 -3 -29 -31 7 50 138 181 204 239 284 309
30 109 150 207 177 152 165 134 136 176 14 31 77 91 152 207 269 262 200 131 171 134 107 85 61 53 36 37 28 28 13 16 9 27 35 35 43 33 10 -4 -25 12 49 103 233 269 295 370 437
Wind_Speed
59 55 21 31 26 27 42 35 22 28 25 36 37 27 28 33 33 28 29 37 37 38 41 42 44 45 47 49 51 53 54 55 53 52 50 44 33 27 25 21 19 18 18 18 20 20 18 18 22
49 48 30 25 21 35 45 24 22 23 28 27 27 23 30 30 32 26 26 37 38 38 40 42 45 47 49 50 53 55 56 57 56 54 51 48 45 35 27 21 17 16 16 17 19 18 15 15 18
18 18 34 20 15 42 35 32 24 25 26 26 24 32 34 36 34 24 25 32 36 37 40 43 45 48 50 52 54 56 57 58 58 58 56 55 51 46 35 22 20 21 18 16 20 20 18 15 15
36 24 20 29 28 30 31 30 28 26 26 31 23 27 26 38 27 22 27 30 33 36 38 43 46 48 51 53 56 58 60 59 60 59 59 58 55 51 46 37 23 20 21 21 22 24 24 21 19
26 31 33 42 39 28 30 35 28 23 22 28 23 25 23 25 24 24 27 31 34 37 41 43 48 51 52 54 58 60 60 61 61 61 61 59 54 52 49 47 44 35 26 29 33 33 29 27 22
38 9 44 45 33 24 27 35 27 26 27 28 25 23 25 21 22 24 26 31 35 39 43 46 50 53 55 56 61 61 62 64 64 62 61 62 58 52 49 44 43 46 45 33 36 37 37 35 28
38 51 58 59 25 27 20 27 28 24 21 32 23 23 18 19 21 23 26 31 36 41 44 48 52 55 59 58 63 65 64 65 65 64 62 64 61 55 57 53 45 40 40 46 38 33 35 35 36
41 51 51 57 43 27 17 22 27 34 27 29 43 32 18 16 18 22 27 32 38 43 47 52 55 59 61 62 64 67 64 67 66 65 64 67 63 63 61 58 54 63 59 32 35 42 38 34 34
45 42 42 52 31 20 21 22 28 31 24 32 31 29 22 19 20 23 26 35 41 45 50 54 58 61 63 62 65 67 67 68 67 67 67 67 64 66 65 65 64 62 61 50 35 31 34 42 38
37 47 42 39 32 28 26 36 25 22 22 24 25 25 23 21 24 30 35 43 47 50 52 56 59 61 64 64 67 66 69 68 69 69 69 71 69 68 69 68 68 63 60 56 50 42 36 39 42
42 41 43 36 38 37 35 30 24 26 31 17 17 20 23 26 30 33 37 42 48 50 53 57 60 62 65 68 67 68 69 71 71 69 76 72 73 70 71 70 68 68 68 61 56 51 43 40 40
40 37 42 43 40 41 38 39 36 35 27 29 23 23 26 29 33 38 42 46 50 52 54 59 62 64 67 69 69 71 73 72 71 76 73 74 73 76 76 75 76 73 69 72 66 58 59 52 46
36 40 40 41 39 35 35 34 34 28 24 25 26 26 30 31 34 37 43 47 50 54 56 61 63 66 69 70 71 73 72 71 75 73 74 75 77 77 79 80 79 79 77 73 73 71 64 57 53
50 47 45 40 33 36 34 38 26 21 20 24 24 26 28 32 37 40 45 49 52 55 58 61 63 66 69 72 74 73 72 74 74 74 74 75 77 79 80 82 82 81 79 80 80 78 79 77 59
41 57 52 29 23 30 33 35 24 14 19 23 24 27 29 33 37 42 45 49 52 55 59 62 64 66 71 72 72 71 72 74 76 74 76 79 80 81 82 84 85 83 83 85 84 84 81 79 73
40 41 50 42 12 25 33 53 15 12 19 25 24 27 31 35 40 43 46 49 51 54 59 62 63 67 71 69 70 71 71 75 74 77 78 79 79 83 85 85 85 86 88 86 85 85 86 85 82
36 41 48 28 16 27 28 38 21 17 19 24 25 28 33 36 39 43 46 48 51 54 58 61 63 66 70 67 69 71 72 73 76 77 78 79 84 84 86 87 87 90 88 87 86 85 83 85 87
60 44 48 47 24 29 38 40 25 20 23 28 27 29 36 37 38 44 46 48 50 53 56 58 60 64 68 67 70 70 72 75 75 77 79 82 86 85 84 86 90 91 90 90 88 90 87 87 86
54 58 63 53 54 64 56 57 47 26 22 28 24 33 34 36 38 41 43 46 49 52 55 58 61 65 67 69 72 74 77 76 77 78 84 88 86 90 91 88 85 84 84 86 88 92 94 93 86
58 63 59 53 42 46 56 52 45 43 25 24 26 28 31 34 36 40 44 46 48 51 54 58 62 65 65 69 69 70 74 74 75 81 84 85 90 88 87 87 84 83 83 84 84 83 86 89 83
53 52 54 54 55 56 57 59 49 46 18 22 27 32 32 35 39 41 42 45 48 52 56 59 61 63 64 68 68 71 71 73 76 83 84 88 86 84 83 83 84 83 82 82 80 79 82 86 83
53 49 48 51 60 70 54 77 54 32 20 20 25 27 28 34 36 38 41 45 48 51 55 59 61 61 64 67 69 73 75 79 80 83 85 87 89 82 80 81 83 84 82 84 81 79 79 79 85
46 52 51 56 62 65 58 60 53 30 19 21 21 19 29 36 35 37 40 43 46 50 55 59 60 61 64 66 68 69 72 74 78 82 87 89 89 85 81 83 84 82 81 81 82 83 82 84 87
47 55 57 51 50 63 56 53 47 25 31 14 19 23 31 33 33 36 38 41 45 53 58 59 60 60 64 65 66 68 72 74 79 84 86 91 91 89 85 86 83 81 81 81 83 82 82 85 84
39 48 62 62 54 59 43 47 46 34 31 21 22 28 31 33 33 35 40 44 47 55 58 57 59 59 63 64 64 66 68 72 75 81 86 92 95 95 90 88 83 80 80 79 80 81 84 71 73
36 44 56 70 69 69 65 53 52 35 37 29 23 26 28 31 32 36 41 45 49 55 56 57 58 59 62 62 63 64 67 71 73 77 82 85 91 94 93 88 83 80 79 77 77 76 80 72 69
47 42 47 55 59 66 58 52 36 36 39 35 34 32 30 30 30 35 42 47 50 56 54 55 56 57 59 60 61 63 66 70 73 73 76 81 85 91 94 91 84 80 76 77 78 73 74 76 63
45 45 56 48 65 69 54 63 64 45 47 40 38 35 33 32 33 39 43 47 50 51 49 51 51 54 56 57 59 62 65 67 70 70 75 79 84 91 91 93 87 80 77 77 76 72 69 66 62
42 44 42 42 42 65 74 57 45 46 40 42 40 38 35 34 39 43 46 48 48 45 46 48 47 49 51 55 56 60 63 66 67 69 71 76 80 87 93 91 89 83 82 83 80 73 66 64 60
42 49 50 53 57 59 65 66 51 43 42 48 48 39 34 37 37 42 45 43 44 43 45 44 43 46 46 50 54 57 59 61 64 69 70 73 78 82 88 90 89 87 86 85 82 74 64 65 58
Wind_Direction
308 293 354 339 334 321 304 303 338 341 335 340 351 352 4 343 328 329 6 14 19 11 7 3 358 356 354 353 351 350 350 349 349 349 350 351 357 358 355 1 8 18 23 22 23 26 28 27 15
317 297 328 352 334 303 315 334 339 354 7 357 0 21 351 348 348 350 346 355 13 9 6 -0 359 357 356 355 352 349 348 349 350 350 350 347 345 348 349 349 351 356 5 4 9 13 19 18 13
243 32 334 345 339 299 321 330 4 355 347 344 345 346 326 323 342 347 360 358 6 8 5 359 356 354 353 351 351 351 350 349 348 346 343 338 336 339 343 346 341 336 339 346 348 353 355 0 3
337 355 1 328 312 329 323 332 350 352 347 333 356 351 352 330 333 350 352 0 360 356 2 358 356 354 351 350 348 348 347 348 346 344 342 337 333 331 332 334 338 332 326 327 331 334 336 340 343
343 335 320 302 302 329 331 320 327 348 352 338 13 351 359 358 5 3 360 358 356 351 347 350 349 348 348 349 347 346 345 343 342 341 339 337 336 331 327 325 323 324 323 319 318 318 324 326 330
321 12 306 297 301 322 333 324 330 341 334 343 1 360 355 17 11 5 359 357 354 351 347 345 344 344 343 345 342 342 341 340 339 338 337 333 332 333 330 329 323 317 313 316 314 313 312 314 317
311 295 286 281 330 316 335 339 338 344 346 350 1 357 11 13 13 13 5 358 353 349 346 343 341 340 338 339 339 335 336 335 335 334 334 328 328 330 324 323 323 320 315 309 310 311 310 309 308
308 297 295 286 304 318 349 347 342 329 338 336 328 336 346 360 9 7 359 353 349 346 343 340 337 336 335 334 334 330 335 331 333 332 330 323 323 321 320 321 321 309 306 310 305 303 303 304 304
299 305 304 298 310 344 356 347 337 333 343 338 338 349 5 5 356 349 346 345 339 339 339 338 337 335 333 333 333 332 333 330 330 329 329 326 324 319 317 315 315 314 310 309 305 298 296 297 297
310 293 315 322 325 341 346 328 347 342 340 340 340 347 351 349 341 334 333 328 331 333 336 336 336 335 333 333 331 334 332 331 329 326 325 323 322 320 316 314 312 315 312 311 307 301 294 293 294
308 306 319 323 319 322 331 331 338 331 323 352 348 355 348 341 338 335 335 335 332 333 334 335 335 335 334 332 333 334 333 330 327 327 321 321 318 317 315 314 314 312 308 309 308 306 298 289 286
321 323 315 315 321 317 315 324 322 322 331 342 352 344 342 337 335 332 331 331 331 332 333 333 334 334 333 333 333 332 331 329 328 325 324 322 320 315 312 310 308 309 309 305 304 303 301 297 291
329 326 326 319 318 323 321 318 318 325 336 341 339 338 335 335 337 336 333 333 332 332 334 333 333 334 333 333 333 332 331 330 327 326 324 322 319 316 312 309 308 306 305 304 302 300 299 296 290
319 322 321 322 323 320 318 316 313 324 338 335 335 334 335 333 331 333 332 330 331 331 332 334 335 336 335 332 332 331 331 329 327 326 324 323 319 316 313 310 308 306 304 301 298 296 294 293 291
330 316 319 317 319 327 328 318 291 326 332 332 331 333 335 335 335 333 333 331 331 332 333 333 335 336 334 333 332 331 330 329 327 326 325 322 320 316 313 309 306 305 303 300 297 294 292 290 289
325 323 317 315 317 330 331 319 341 320 322 322 326 328 329 333 333 335 335 333 334 334 334 334 336 336 334 334 333 332 331 330 329 327 325 323 323 319 315 311 308 305 301 298 295 293 290 287 285
323 317 323 321 331 335 331 322 324 319 316 320 321 326 327 331 334 337 337 337 337 339 337 336 338 337 336 337 337 335 334 334 331 329 327 325 321 319 316 312 309 305 302 299 297 294 291 288 283
316 323 321 321 331 326 324 323 325 313 309 314 319 326 329 328 333 337 339 341 341 342 341 340 341 340 339 339 338 337 336 334 334 331 328 326 323 321 319 314 309 305 300 295 293 291 289 288 285
314 311 309 310 308 309 315 317 315 299 297 310 321 324 327 332 340 343 344 345 343 345 344 343 343 342 342 341 339 338 337 336 336 334 331 327 325 321 317 314 311 308 302 297 293 289 286 282 285
312 308 307 310 314 313 313 313 317 315 286 299 315 324 330 335 338 345 344 346 347 347 346 345 344 344 346 344 342 342 339 339 339 336 334 332 328 326 322 317 313 309 304 298 294 292 288 284 282
311 308 308 311 315 315 315 309 305 308 283 303 322 334 338 337 336 339 344 347 347 347 346 346 346 346 347 344 343 341 340 340 339 338 340 339 337 334 328 320 315 311 307 301 298 294 288 284 282
304 320 318 313 313 309 318 308 315 317 299 303 321 332 339 341 340 342 343 346 348 349 349 348 347 347 346 345 343 340 338 337 340 341 341 341 339 341 334 326 316 311 307 300 299 295 290 286 281
306 318 315 312 310 311 312 309 315 319 295 299 319 343 345 344 342 342 344 347 350 352 349 347 345 346 346 344 343 342 340 342 340 340 340 342 345 344 340 330 319 312 308 304 299 293 288 284 280
311 311 310 308 308 305 313 308 319 327 342 326 330 336 340 344 343 343 349 351 352 349 345 345 343 345 343 341 343 343 339 332 332 339 347 346 347 346 343 336 325 316 313 306 298 294 291 285 281
311 309 307 307 305 303 328 319 324 335 337 333 319 329 336 341 341 344 345 345 347 345 345 345 344 345 341 343 344 341 330 331 332 337 348 347 346 349 346 334 327 321 318 312 306 299 292 294 289
305 309 306 305 308 306 312 314 319 332 333 341 341 341 342 343 344 345 344 344 343 342 342 343 342 343 341 343 342 338 335 340 340 346 350 1 358 350 342 337 333 330 330 328 316 306 301 297 294
317 300 314 311 311 307 308 312 324 327 329 332 332 334 335 340 341 343 343 340 339 338 340 341 342 343 342 344 341 338 341 342 344 353 0 4 8 3 352 345 343 341 332 330 327 324 317 312 296
299 307 307 310 306 305 312 314 316 318 319 327 328 330 331 336 336 338 339 336 337 338 341 341 344 345 345 345 343 340 342 345 348 357 360 3 7 9 7 359 351 348 342 341 347 344 333 325 315
300 299 305 302 299 306 308 312 333 322 327 325 323 318 321 325 327 331 333 333 334 338 339 340 344 344 348 346 345 346 345 348 351 358 3 4 7 9 9 8 1 358 358 359 359 352 339 335 332
301 305 307 305 304 306 310 306 322 331 331 326 323 320 316 320 326 329 332 333 334 334 334 338 343 342 347 347 348 347 351 356 360 2 4 5 7 9 10 12 10 3 5 4 359 354 347 346 338